owner,sensor,date,latitude,longitude,vertical_datum,mass_concentration_of_oxygen_in_sea_water,qcFlag 
DISL,ioos:station:DISL:PPTA:1,2011-12-01T00:00:00Z,30.2791,-87.5561,1.088,7.43,1111122 
DISL,ioos:station:DISL:PPTA:1,2011-12-01T00:30:00Z,30.2791,-87.5561,1.097,7.47,1111122 
DISL,ioos:station:DISL:PPTA:1,2011-12-01T01:00:00Z,30.2791,-87.5561,1.119,7.51,1111122 
DISL,ioos:station:DISL:PPTA:1,2011-12-01T01:30:00Z,30.2791,-87.5561,1.123,7.3,1111122 
DISL,ioos:station:DISL:PPTA:1,2011-12-01T02:00:00Z,30.2791,-87.5561,1.129,7.28,1111122 
DISL,ioos:station:DISL:PPTA:1,2011-12-01T02:30:00Z,30.2791,-87.5561,1.141,7.43,1111122 
DISL,ioos:station:DISL:PPTA:1,2011-12-01T03:00:00Z,30.2791,-87.5561,1.157,7.12,1111122 
DISL,ioos:station:DISL:PPTA:1,2011-12-01T03:30:00Z,30.2791,-87.5561,1.163,6.94,1111122 
DISL,ioos:station:DISL:PPTA:1,2011-12-01T04:00:00Z,30.2791,-87.5561,1.165,7.1,1111122 
DISL,ioos:station:DISL:PPTA:1,2011-12-01T04:30:00Z,30.2791,-87.5561,1.181,6.95,1111122 
DISL,ioos:station:DISL:PPTA:1,2011-12-01T05:00:00Z,30.2791,-87.5561,1.191,6.7,1111122 
DISL,ioos:station:DISL:PPTA:1,2011-12-01T05:30:00Z,30.2791,-87.5561,1.193,6.57,1111122 
DISL,ioos:station:DISL:PPTA:1,2011-12-01T06:00:00Z,30.2791,-87.5561,1.192,7.13,1111122 
DISL,ioos:station:DISL:PPTA:1,2011-12-01T06:30:00Z,30.2791,-87.5561,1.188,7.0,1111122 
DISL,ioos:station:DISL:PPTA:1,2011-12-01T07:00:00Z,30.2791,-87.5561,1.182,7.1,1111122 
DISL,ioos:station:DISL:PPTA:1,2011-12-01T07:30:00Z,30.2791,-87.5561,1.188,7.01,1111122 
DISL,ioos:station:DISL:PPTA:1,2011-12-01T08:00:00Z,30.2791,-87.5561,1.187,7.08,1111122 
DISL,ioos:station:DISL:PPTA:1,2011-12-01T08:30:00Z,30.2791,-87.5561,1.185,7.24,1111122 
DISL,ioos:station:DISL:PPTA:1,2011-12-01T09:00:00Z,30.2791,-87.5561,1.152,7.28,1111122 
DISL,ioos:station:DISL:PPTA:1,2011-12-01T09:30:00Z,30.2791,-87.5561,1.162,7.29,1111122 
DISL,ioos:station:DISL:PPTA:1,2011-12-01T10:00:00Z,30.2791,-87.5561,1.149,7.1,1111122 
DISL,ioos:station:DISL:PPTA:1,2011-12-01T10:30:00Z,30.2791,-87.5561,1.136,7.27,1111122 
DISL,ioos:station:DISL:PPTA:1,2011-12-01T11:00:00Z,30.2791,-87.5561,1.13,7.37,1111122 
DISL,ioos:station:DISL:PPTA:1,2011-12-01T11:30:00Z,30.2791,-87.5561,1.1,7.42,1111122 
DISL,ioos:station:DISL:PPTA:1,2011-12-01T12:00:00Z,30.2791,-87.5561,1.095,7.36,1111122 
DISL,ioos:station:DISL:PPTA:1,2011-12-01T12:30:00Z,30.2791,-87.5561,1.093,7.18,1111122 
DISL,ioos:station:DISL:PPTA:1,2011-12-01T13:00:00Z,30.2791,-87.5561,1.076,7.14,1111122 
DISL,ioos:station:DISL:PPTA:1,2011-12-01T13:30:00Z,30.2791,-87.5561,1.065,7.45,1111122 
DISL,ioos:station:DISL:PPTA:1,2011-12-01T14:00:00Z,30.2791,-87.5561,1.056,7.82,1111122 
DISL,ioos:station:DISL:PPTA:1,2011-12-01T14:30:00Z,30.2791,-87.5561,1.049,7.87,1111122 
DISL,ioos:station:DISL:PPTA:1,2011-12-01T15:00:00Z,30.2791,-87.5561,1.032,7.92,1111122 
DISL,ioos:station:DISL:PPTA:1,2011-12-01T15:30:00Z,30.2791,-87.5561,1.02,7.98,1111122 
DISL,ioos:station:DISL:PPTA:1,2011-12-01T16:00:00Z,30.2791,-87.5561,1.023,7.78,1111122 
DISL,ioos:station:DISL:PPTA:1,2011-12-01T16:30:00Z,30.2791,-87.5561,1.028,7.66,1111122 
DISL,ioos:station:DISL:PPTA:1,2011-12-01T17:00:00Z,30.2791,-87.5561,1.019,7.97,1111122 
DISL,ioos:station:DISL:PPTA:1,2011-12-01T17:30:00Z,30.2791,-87.5561,1.021,8.13,1111122 
DISL,ioos:station:DISL:PPTA:1,2011-12-01T18:00:00Z,30.2791,-87.5561,1.028,8.12,1111122 
DISL,ioos:station:DISL:PPTA:1,2011-12-01T18:30:00Z,30.2791,-87.5561,1.023,8.06,1111122 
DISL,ioos:station:DISL:PPTA:1,2011-12-01T19:00:00Z,30.2791,-87.5561,1.034,8.19,1111122 
DISL,ioos:station:DISL:PPTA:1,2011-12-01T19:30:00Z,30.2791,-87.5561,1.034,8.2,1111122 
DISL,ioos:station:DISL:PPTA:1,2011-12-01T20:00:00Z,30.2791,-87.5561,1.047,8.11,1111122 
DISL,ioos:station:DISL:PPTA:1,2011-12-01T20:30:00Z,30.2791,-87.5561,1.045,8.18,1111122 
DISL,ioos:station:DISL:PPTA:1,2011-12-01T21:00:00Z,30.2791,-87.5561,1.037,8.71,1111122 
DISL,ioos:station:DISL:PPTA:1,2011-12-01T21:30:00Z,30.2791,-87.5561,1.067,8.19,1111122 
DISL,ioos:station:DISL:PPTA:1,2011-12-01T22:00:00Z,30.2791,-87.5561,1.055,8.16,1111122 
DISL,ioos:station:DISL:PPTA:1,2011-12-01T22:30:00Z,30.2791,-87.5561,1.052,8.77,1111122 
DISL,ioos:station:DISL:PPTA:1,2011-12-01T23:00:00Z,30.2791,-87.5561,1.049,8.26,1111122 
DISL,ioos:station:DISL:PPTA:1,2011-12-01T23:30:00Z,30.2791,-87.5561,1.069,8.23,1111122 
DISL,ioos:station:DISL:PPTA:1,2011-12-02T00:00:00Z,30.2791,-87.5561,1.085,8.07,1111122 
DISL,ioos:station:DISL:PPTA:1,2011-12-02T00:30:00Z,30.2791,-87.5561,1.075,7.92,1111122 
DISL,ioos:station:DISL:PPTA:1,2011-12-02T01:00:00Z,30.2791,-87.5561,1.104,8.0,1111122 
DISL,ioos:station:DISL:PPTA:1,2011-12-02T01:30:00Z,30.2791,-87.5561,1.092,7.87,1111122 
DISL,ioos:station:DISL:PPTA:1,2011-12-02T02:00:00Z,30.2791,-87.5561,1.074,7.83,1111122 
DISL,ioos:station:DISL:PPTA:1,2011-12-02T02:30:00Z,30.2791,-87.5561,1.12,7.78,1111122 
DISL,ioos:station:DISL:PPTA:1,2011-12-02T03:00:00Z,30.2791,-87.5561,1.1,7.79,1111122 
DISL,ioos:station:DISL:PPTA:1,2011-12-02T03:30:00Z,30.2791,-87.5561,1.132,7.64,1111122 
DISL,ioos:station:DISL:PPTA:1,2011-12-02T04:00:00Z,30.2791,-87.5561,1.14,7.84,1111122 
DISL,ioos:station:DISL:PPTA:1,2011-12-02T04:30:00Z,30.2791,-87.5561,1.134,7.46,1111122 
DISL,ioos:station:DISL:PPTA:1,2011-12-02T05:00:00Z,30.2791,-87.5561,1.123,7.6,1111122 
DISL,ioos:station:DISL:PPTA:1,2011-12-02T05:30:00Z,30.2791,-87.5561,1.143,7.5,1111122 
DISL,ioos:station:DISL:PPTA:1,2011-12-02T06:00:00Z,30.2791,-87.5561,1.161,7.52,1111122 
DISL,ioos:station:DISL:PPTA:1,2011-12-02T06:30:00Z,30.2791,-87.5561,1.138,7.33,1111122 
DISL,ioos:station:DISL:PPTA:1,2011-12-02T07:00:00Z,30.2791,-87.5561,1.158,7.42,1111122 
DISL,ioos:station:DISL:PPTA:1,2011-12-02T07:30:00Z,30.2791,-87.5561,1.15,7.36,1111122 
DISL,ioos:station:DISL:PPTA:1,2011-12-02T08:00:00Z,30.2791,-87.5561,1.142,7.47,1111122 
DISL,ioos:station:DISL:PPTA:1,2011-12-02T08:30:00Z,30.2791,-87.5561,1.11,7.44,1111122 
DISL,ioos:station:DISL:PPTA:1,2011-12-02T09:00:00Z,30.2791,-87.5561,1.169,8.02,1111122 
DISL,ioos:station:DISL:PPTA:1,2011-12-02T09:30:00Z,30.2791,-87.5561,1.113,8.09,1111122 
DISL,ioos:station:DISL:PPTA:1,2011-12-02T10:00:00Z,30.2791,-87.5561,1.126,7.78,1111122 
DISL,ioos:station:DISL:PPTA:1,2011-12-02T10:30:00Z,30.2791,-87.5561,1.143,7.96,1111122 
DISL,ioos:station:DISL:PPTA:1,2011-12-02T11:00:00Z,30.2791,-87.5561,1.126,7.73,1111122 
DISL,ioos:station:DISL:PPTA:1,2011-12-02T11:30:00Z,30.2791,-87.5561,1.116,7.85,1111122 
DISL,ioos:station:DISL:PPTA:1,2011-12-02T12:00:00Z,30.2791,-87.5561,1.122,7.74,1111122 
DISL,ioos:station:DISL:PPTA:1,2011-12-02T12:30:00Z,30.2791,-87.5561,1.103,7.48,1111122 
DISL,ioos:station:DISL:PPTA:1,2011-12-02T13:00:00Z,30.2791,-87.5561,1.073,7.51,1111122 
DISL,ioos:station:DISL:PPTA:1,2011-12-02T13:30:00Z,30.2791,-87.5561,1.105,7.89,1111122 
DISL,ioos:station:DISL:PPTA:1,2011-12-02T14:00:00Z,30.2791,-87.5561,1.094,7.94,1111122 
DISL,ioos:station:DISL:PPTA:1,2011-12-02T14:30:00Z,30.2791,-87.5561,1.084,8.05,1111122 
DISL,ioos:station:DISL:PPTA:1,2011-12-02T15:00:00Z,30.2791,-87.5561,1.089,8.14,1111122 
DISL,ioos:station:DISL:PPTA:1,2011-12-02T15:30:00Z,30.2791,-87.5561,1.066,8.28,1111122 
DISL,ioos:station:DISL:PPTA:1,2011-12-02T16:00:00Z,30.2791,-87.5561,1.087,8.3,1111122 
DISL,ioos:station:DISL:PPTA:1,2011-12-02T16:30:00Z,30.2791,-87.5561,1.09,8.11,1111122 
DISL,ioos:station:DISL:PPTA:1,2011-12-02T17:00:00Z,30.2791,-87.5561,1.108,8.33,1111122 
DISL,ioos:station:DISL:PPTA:1,2011-12-02T18:30:00Z,30.2791,-87.5561,1.088,8.12,1111122 
DISL,ioos:station:DISL:PPTA:1,2011-12-02T21:00:00Z,30.2791,-87.5561,1.084,8.92,1111122 
DISL,ioos:station:DISL:PPTA:1,2011-12-02T21:30:00Z,30.2791,-87.5561,1.124,8.45,1111122 
DISL,ioos:station:DISL:PPTA:1,2011-12-02T22:00:00Z,30.2791,-87.5561,1.121,8.32,1111122 
DISL,ioos:station:DISL:PPTA:1,2011-12-02T22:30:00Z,30.2791,-87.5561,1.114,8.41,1111122 
DISL,ioos:station:DISL:PPTA:1,2011-12-02T23:00:00Z,30.2791,-87.5561,1.119,8.2,1111122 
DISL,ioos:station:DISL:PPTA:1,2011-12-02T23:30:00Z,30.2791,-87.5561,1.129,8.06,1111122 
DISL,ioos:station:DISL:PPTA:1,2011-12-03T00:00:00Z,30.2791,-87.5561,1.14,7.85,1111122 
DISL,ioos:station:DISL:PPTA:1,2011-12-03T00:30:00Z,30.2791,-87.5561,1.141,8.0,1111122 
DISL,ioos:station:DISL:PPTA:1,2011-12-03T01:00:00Z,30.2791,-87.5561,1.129,7.98,1111122 
DISL,ioos:station:DISL:PPTA:1,2011-12-03T01:30:00Z,30.2791,-87.5561,1.16,7.99,1111122 
DISL,ioos:station:DISL:PPTA:1,2011-12-03T02:00:00Z,30.2791,-87.5561,1.12,8.06,1111122 
DISL,ioos:station:DISL:PPTA:1,2011-12-03T02:30:00Z,30.2791,-87.5561,1.139,7.92,1111122 
DISL,ioos:station:DISL:PPTA:1,2011-12-03T03:00:00Z,30.2791,-87.5561,1.154,8.01,1111122 
DISL,ioos:station:DISL:PPTA:1,2011-12-03T03:30:00Z,30.2791,-87.5561,1.13,8.1,1111122 
DISL,ioos:station:DISL:PPTA:1,2011-12-03T04:00:00Z,30.2791,-87.5561,1.13,8.13,1111122 
DISL,ioos:station:DISL:PPTA:1,2011-12-03T04:30:00Z,30.2791,-87.5561,1.14,8.15,1111122 
DISL,ioos:station:DISL:PPTA:1,2011-12-03T05:00:00Z,30.2791,-87.5561,1.127,8.5,1111122 
DISL,ioos:station:DISL:PPTA:1,2011-12-03T05:30:00Z,30.2791,-87.5561,1.127,8.29,1111122 
DISL,ioos:station:DISL:PPTA:1,2011-12-03T06:00:00Z,30.2791,-87.5561,1.136,8.35,1111122 
DISL,ioos:station:DISL:PPTA:1,2011-12-03T06:30:00Z,30.2791,-87.5561,1.131,8.28,1111122 
DISL,ioos:station:DISL:PPTA:1,2011-12-03T07:00:00Z,30.2791,-87.5561,1.132,8.46,1111122 
DISL,ioos:station:DISL:PPTA:1,2011-12-03T07:30:00Z,30.2791,-87.5561,1.106,8.53,1111122 
DISL,ioos:station:DISL:PPTA:1,2011-12-03T08:00:00Z,30.2791,-87.5561,1.127,8.35,1111122 
DISL,ioos:station:DISL:PPTA:1,2011-12-03T08:30:00Z,30.2791,-87.5561,1.117,8.5,1111122 
DISL,ioos:station:DISL:PPTA:1,2011-12-03T09:00:00Z,30.2791,-87.5561,1.123,8.51,1111122 
DISL,ioos:station:DISL:PPTA:1,2011-12-03T09:30:00Z,30.2791,-87.5561,1.125,8.51,1111122 
DISL,ioos:station:DISL:PPTA:1,2011-12-03T10:00:00Z,30.2791,-87.5561,1.129,8.59,1111122 
DISL,ioos:station:DISL:PPTA:1,2011-12-03T10:30:00Z,30.2791,-87.5561,1.129,8.57,1111122 
DISL,ioos:station:DISL:PPTA:1,2011-12-03T11:00:00Z,30.2791,-87.5561,1.119,8.52,1111122 
DISL,ioos:station:DISL:PPTA:1,2011-12-03T11:30:00Z,30.2791,-87.5561,1.107,7.9,1111122 
DISL,ioos:station:DISL:PPTA:1,2011-12-03T12:00:00Z,30.2791,-87.5561,1.115,8.52,1111122 
DISL,ioos:station:DISL:PPTA:1,2011-12-03T12:30:00Z,30.2791,-87.5561,1.125,8.38,1111122 
DISL,ioos:station:DISL:PPTA:1,2011-12-03T13:00:00Z,30.2791,-87.5561,1.131,8.01,1111122 
DISL,ioos:station:DISL:PPTA:1,2011-12-03T13:30:00Z,30.2791,-87.5561,1.137,7.98,1111122 
DISL,ioos:station:DISL:PPTA:1,2011-12-03T14:00:00Z,30.2791,-87.5561,1.13,7.95,1111122 
DISL,ioos:station:DISL:PPTA:1,2011-12-03T14:30:00Z,30.2791,-87.5561,1.13,7.93,1111122 
DISL,ioos:station:DISL:PPTA:1,2011-12-03T15:00:00Z,30.2791,-87.5561,1.158,7.91,1111122 
DISL,ioos:station:DISL:PPTA:1,2011-12-03T15:30:00Z,30.2791,-87.5561,1.136,8.21,1111122 
DISL,ioos:station:DISL:PPTA:1,2011-12-03T16:00:00Z,30.2791,-87.5561,1.16,8.06,1111122 
DISL,ioos:station:DISL:PPTA:1,2011-12-03T16:30:00Z,30.2791,-87.5561,1.164,8.26,1111122 
DISL,ioos:station:DISL:PPTA:1,2011-12-03T17:00:00Z,30.2791,-87.5561,1.164,8.66,1111122 
DISL,ioos:station:DISL:PPTA:1,2011-12-03T17:30:00Z,30.2791,-87.5561,1.172,8.19,1111122 
DISL,ioos:station:DISL:PPTA:1,2011-12-03T18:00:00Z,30.2791,-87.5561,1.183,8.51,1111122 
DISL,ioos:station:DISL:PPTA:1,2011-12-03T18:30:00Z,30.2791,-87.5561,1.191,8.45,1111122 
DISL,ioos:station:DISL:PPTA:1,2011-12-03T19:00:00Z,30.2791,-87.5561,1.198,8.51,1111122 
DISL,ioos:station:DISL:PPTA:1,2011-12-03T19:30:00Z,30.2791,-87.5561,1.212,8.68,1111122 
DISL,ioos:station:DISL:PPTA:1,2011-12-03T20:00:00Z,30.2791,-87.5561,1.234,8.65,1111122 
DISL,ioos:station:DISL:PPTA:1,2011-12-03T20:30:00Z,30.2791,-87.5561,1.271,8.47,1111122 
DISL,ioos:station:DISL:PPTA:1,2011-12-03T21:00:00Z,30.2791,-87.5561,1.234,8.43,1111122 
DISL,ioos:station:DISL:PPTA:1,2011-12-03T21:30:00Z,30.2791,-87.5561,1.243,8.39,1111122 
DISL,ioos:station:DISL:PPTA:1,2011-12-03T22:00:00Z,30.2791,-87.5561,1.244,8.29,1111122 
DISL,ioos:station:DISL:PPTA:1,2011-12-03T22:30:00Z,30.2791,-87.5561,1.248,8.27,1111122 
DISL,ioos:station:DISL:PPTA:1,2011-12-03T23:00:00Z,30.2791,-87.5561,1.244,8.2,1111122 
DISL,ioos:station:DISL:PPTA:1,2011-12-03T23:30:00Z,30.2791,-87.5561,1.285,8.08,1111122 
DISL,ioos:station:DISL:PPTA:1,2011-12-04T00:00:00Z,30.2791,-87.5561,1.271,8.07,1111122 
DISL,ioos:station:DISL:PPTA:1,2011-12-04T00:30:00Z,30.2791,-87.5561,1.28,8.1,1111122 
DISL,ioos:station:DISL:PPTA:1,2011-12-04T01:00:00Z,30.2791,-87.5561,1.287,8.02,1111122 
DISL,ioos:station:DISL:PPTA:1,2011-12-04T01:30:00Z,30.2791,-87.5561,1.268,7.92,1111122 
DISL,ioos:station:DISL:PPTA:1,2011-12-04T02:00:00Z,30.2791,-87.5561,1.285,7.88,1111122 
DISL,ioos:station:DISL:PPTA:1,2011-12-04T02:30:00Z,30.2791,-87.5561,1.256,7.86,1111122 
DISL,ioos:station:DISL:PPTA:1,2011-12-04T03:00:00Z,30.2791,-87.5561,1.293,8.04,1111122 
DISL,ioos:station:DISL:PPTA:1,2011-12-04T03:30:00Z,30.2791,-87.5561,1.29,7.89,1111122 
DISL,ioos:station:DISL:PPTA:1,2011-12-04T04:00:00Z,30.2791,-87.5561,1.262,7.87,1111122 
DISL,ioos:station:DISL:PPTA:1,2011-12-04T04:30:00Z,30.2791,-87.5561,1.28,7.95,1111122 
DISL,ioos:station:DISL:PPTA:1,2011-12-04T05:00:00Z,30.2791,-87.5561,1.285,7.85,1111122 
DISL,ioos:station:DISL:PPTA:1,2011-12-04T05:30:00Z,30.2791,-87.5561,1.258,7.83,1111122 
DISL,ioos:station:DISL:PPTA:1,2011-12-04T06:00:00Z,30.2791,-87.5561,1.246,8.17,1111122 
DISL,ioos:station:DISL:PPTA:1,2011-12-04T06:30:00Z,30.2791,-87.5561,1.258,8.26,1111122 
DISL,ioos:station:DISL:PPTA:1,2011-12-04T07:00:00Z,30.2791,-87.5561,1.274,8.1,1111122 
DISL,ioos:station:DISL:PPTA:1,2011-12-04T07:30:00Z,30.2791,-87.5561,1.271,8.04,1111122 
DISL,ioos:station:DISL:PPTA:1,2011-12-04T08:00:00Z,30.2791,-87.5561,1.279,8.0,1111122 
DISL,ioos:station:DISL:PPTA:1,2011-12-04T08:30:00Z,30.2791,-87.5561,1.242,8.02,1111122 
DISL,ioos:station:DISL:PPTA:1,2011-12-04T09:00:00Z,30.2791,-87.5561,1.228,8.18,1111122 
DISL,ioos:station:DISL:PPTA:1,2011-12-04T09:30:00Z,30.2791,-87.5561,1.265,8.03,1111122 
DISL,ioos:station:DISL:PPTA:1,2011-12-04T10:00:00Z,30.2791,-87.5561,1.254,8.1,1111122 
DISL,ioos:station:DISL:PPTA:1,2011-12-04T10:30:00Z,30.2791,-87.5561,1.253,8.08,1111122 
DISL,ioos:station:DISL:PPTA:1,2011-12-04T11:00:00Z,30.2791,-87.5561,1.258,8.14,1111122 
DISL,ioos:station:DISL:PPTA:1,2011-12-04T11:30:00Z,30.2791,-87.5561,1.241,8.18,1111122 
DISL,ioos:station:DISL:PPTA:1,2011-12-04T12:00:00Z,30.2791,-87.5561,1.233,8.26,1111122 
DISL,ioos:station:DISL:PPTA:1,2011-12-04T12:30:00Z,30.2791,-87.5561,1.245,8.12,1111122 
DISL,ioos:station:DISL:PPTA:1,2011-12-04T13:00:00Z,30.2791,-87.5561,1.255,8.13,1111122 
DISL,ioos:station:DISL:PPTA:1,2011-12-04T13:30:00Z,30.2791,-87.5561,1.264,8.22,1111122 
DISL,ioos:station:DISL:PPTA:1,2011-12-04T14:00:00Z,30.2791,-87.5561,1.271,8.28,1111122 
DISL,ioos:station:DISL:PPTA:1,2011-12-04T14:30:00Z,30.2791,-87.5561,1.272,8.13,1111122 
DISL,ioos:station:DISL:PPTA:1,2011-12-04T15:00:00Z,30.2791,-87.5561,1.248,8.29,1111122 
DISL,ioos:station:DISL:PPTA:1,2011-12-04T15:30:00Z,30.2791,-87.5561,1.283,8.18,1111122 
DISL,ioos:station:DISL:PPTA:1,2011-12-04T16:00:00Z,30.2791,-87.5561,1.284,8.34,1111122 
DISL,ioos:station:DISL:PPTA:1,2011-12-04T16:30:00Z,30.2791,-87.5561,1.275,8.4,1111122 
DISL,ioos:station:DISL:PPTA:1,2011-12-04T17:00:00Z,30.2791,-87.5561,1.296,8.47,1111122 
DISL,ioos:station:DISL:PPTA:1,2011-12-04T17:30:00Z,30.2791,-87.5561,1.302,8.44,1111122 
DISL,ioos:station:DISL:PPTA:1,2011-12-04T18:00:00Z,30.2791,-87.5561,1.283,8.58,1111122 
DISL,ioos:station:DISL:PPTA:1,2011-12-04T18:30:00Z,30.2791,-87.5561,1.31,8.57,1111122 
DISL,ioos:station:DISL:PPTA:1,2011-12-04T19:00:00Z,30.2791,-87.5561,1.351,8.56,1111122 
DISL,ioos:station:DISL:PPTA:1,2011-12-04T19:30:00Z,30.2791,-87.5561,1.34,8.42,1111122 
DISL,ioos:station:DISL:PPTA:1,2011-12-04T20:00:00Z,30.2791,-87.5561,1.361,8.5,1111122 
DISL,ioos:station:DISL:PPTA:1,2011-12-04T20:30:00Z,30.2791,-87.5561,1.359,8.41,1111122 
DISL,ioos:station:DISL:PPTA:1,2011-12-04T21:00:00Z,30.2791,-87.5561,1.372,8.41,1111122 
DISL,ioos:station:DISL:PPTA:1,2011-12-04T21:30:00Z,30.2791,-87.5561,1.385,8.34,1111122 
DISL,ioos:station:DISL:PPTA:1,2011-12-04T22:00:00Z,30.2791,-87.5561,1.397,8.3,1111122 
DISL,ioos:station:DISL:PPTA:1,2011-12-04T22:30:00Z,30.2791,-87.5561,1.398,8.29,1111122 
DISL,ioos:station:DISL:PPTA:1,2011-12-04T23:00:00Z,30.2791,-87.5561,1.379,8.27,1111122 
DISL,ioos:station:DISL:PPTA:1,2011-12-04T23:30:00Z,30.2791,-87.5561,1.395,8.22,1111122 
DISL,ioos:station:DISL:PPTA:1,2011-12-05T00:00:00Z,30.2791,-87.5561,1.392,8.21,1111122 
DISL,ioos:station:DISL:PPTA:1,2011-12-05T00:30:00Z,30.2791,-87.5561,1.401,8.19,1111122 
DISL,ioos:station:DISL:PPTA:1,2011-12-05T01:00:00Z,30.2791,-87.5561,1.415,8.18,1111122 
DISL,ioos:station:DISL:PPTA:1,2011-12-05T01:30:00Z,30.2791,-87.5561,1.419,8.2,1111122 
DISL,ioos:station:DISL:PPTA:1,2011-12-05T02:00:00Z,30.2791,-87.5561,1.421,8.12,1111122 
DISL,ioos:station:DISL:PPTA:1,2011-12-05T02:30:00Z,30.2791,-87.5561,1.42,8.14,1111122 
DISL,ioos:station:DISL:PPTA:1,2011-12-05T03:00:00Z,30.2791,-87.5561,1.41,8.14,1111122 
DISL,ioos:station:DISL:PPTA:1,2011-12-05T03:30:00Z,30.2791,-87.5561,1.406,8.13,1111122 
DISL,ioos:station:DISL:PPTA:1,2011-12-05T04:00:00Z,30.2791,-87.5561,1.377,8.31,1111122 
DISL,ioos:station:DISL:PPTA:1,2011-12-05T04:30:00Z,30.2791,-87.5561,1.376,8.02,1111122 
DISL,ioos:station:DISL:PPTA:1,2011-12-05T05:00:00Z,30.2791,-87.5561,1.37,8.34,1111122 
DISL,ioos:station:DISL:PPTA:1,2011-12-05T05:30:00Z,30.2791,-87.5561,1.371,8.29,1111122 
DISL,ioos:station:DISL:PPTA:1,2011-12-05T06:00:00Z,30.2791,-87.5561,1.351,8.25,1111122 
DISL,ioos:station:DISL:PPTA:1,2011-12-05T06:30:00Z,30.2791,-87.5561,1.36,8.18,1111122 
DISL,ioos:station:DISL:PPTA:1,2011-12-05T07:00:00Z,30.2791,-87.5561,1.334,8.07,1111122 
DISL,ioos:station:DISL:PPTA:1,2011-12-05T07:30:00Z,30.2791,-87.5561,1.348,8.2,1111122 
DISL,ioos:station:DISL:PPTA:1,2011-12-05T08:00:00Z,30.2791,-87.5561,1.32,8.11,1111122 
DISL,ioos:station:DISL:PPTA:1,2011-12-05T08:30:00Z,30.2791,-87.5561,1.334,8.07,1111122 
DISL,ioos:station:DISL:PPTA:1,2011-12-05T09:00:00Z,30.2791,-87.5561,1.301,8.07,1111122 
DISL,ioos:station:DISL:PPTA:1,2011-12-05T09:30:00Z,30.2791,-87.5561,1.284,7.99,1111122 
DISL,ioos:station:DISL:PPTA:1,2011-12-05T10:00:00Z,30.2791,-87.5561,1.305,8.06,1111122 
DISL,ioos:station:DISL:PPTA:1,2011-12-05T10:30:00Z,30.2791,-87.5561,1.304,8.18,1111122 
DISL,ioos:station:DISL:PPTA:1,2011-12-05T11:00:00Z,30.2791,-87.5561,1.296,8.2,1111122 
DISL,ioos:station:DISL:PPTA:1,2011-12-05T11:30:00Z,30.2791,-87.5561,1.327,8.19,1111122 
DISL,ioos:station:DISL:PPTA:1,2011-12-05T12:00:00Z,30.2791,-87.5561,1.328,8.03,1111122 
DISL,ioos:station:DISL:PPTA:1,2011-12-05T12:30:00Z,30.2791,-87.5561,1.29,7.76,1111122 
DISL,ioos:station:DISL:PPTA:1,2011-12-05T13:00:00Z,30.2791,-87.5561,1.287,7.58,1111122 
DISL,ioos:station:DISL:PPTA:1,2011-12-05T13:30:00Z,30.2791,-87.5561,1.312,7.46,1111122 
DISL,ioos:station:DISL:PPTA:1,2011-12-05T14:00:00Z,30.2791,-87.5561,1.308,7.53,1111122 
DISL,ioos:station:DISL:PPTA:1,2011-12-05T14:30:00Z,30.2791,-87.5561,1.304,7.62,1111122 
DISL,ioos:station:DISL:PPTA:1,2011-12-05T15:00:00Z,30.2791,-87.5561,1.332,7.78,1111122 
DISL,ioos:station:DISL:PPTA:1,2011-12-05T15:30:00Z,30.2791,-87.5561,1.331,7.87,1111122 
DISL,ioos:station:DISL:PPTA:1,2011-12-05T16:00:00Z,30.2791,-87.5561,1.374,7.52,1111122 
DISL,ioos:station:DISL:PPTA:1,2011-12-05T16:30:00Z,30.2791,-87.5561,1.346,8.03,1111122 
DISL,ioos:station:DISL:PPTA:1,2011-12-05T17:00:00Z,30.2791,-87.5561,1.364,8.2,1111122 
DISL,ioos:station:DISL:PPTA:1,2011-12-05T17:30:00Z,30.2791,-87.5561,1.361,8.22,1111122 
DISL,ioos:station:DISL:PPTA:1,2011-12-05T18:00:00Z,30.2791,-87.5561,1.367,8.18,1111122 
DISL,ioos:station:DISL:PPTA:1,2011-12-05T18:30:00Z,30.2791,-87.5561,1.367,8.21,1111122 
DISL,ioos:station:DISL:PPTA:1,2011-12-05T19:00:00Z,30.2791,-87.5561,1.413,8.14,1111122 
DISL,ioos:station:DISL:PPTA:1,2011-12-05T19:30:00Z,30.2791,-87.5561,1.401,8.13,1111122 
DISL,ioos:station:DISL:PPTA:1,2011-12-05T20:00:00Z,30.2791,-87.5561,1.408,8.16,1111122 
DISL,ioos:station:DISL:PPTA:1,2011-12-05T20:30:00Z,30.2791,-87.5561,1.429,8.09,1111122 
DISL,ioos:station:DISL:PPTA:1,2011-12-05T21:00:00Z,30.2791,-87.5561,1.457,8.09,1111122 
DISL,ioos:station:DISL:PPTA:1,2011-12-05T21:30:00Z,30.2791,-87.5561,1.426,8.03,1111122 
DISL,ioos:station:DISL:PPTA:1,2011-12-05T22:00:00Z,30.2791,-87.5561,1.444,7.99,1111122 
DISL,ioos:station:DISL:PPTA:1,2011-12-05T22:30:00Z,30.2791,-87.5561,1.445,7.97,1111122 
DISL,ioos:station:DISL:PPTA:1,2011-12-05T23:00:00Z,30.2791,-87.5561,1.488,7.89,1111122 
DISL,ioos:station:DISL:PPTA:1,2011-12-05T23:30:00Z,30.2791,-87.5561,1.479,7.87,1111122 
DISL,ioos:station:DISL:PPTA:1,2011-12-06T00:00:00Z,30.2791,-87.5561,1.428,7.83,1111122 
DISL,ioos:station:DISL:PPTA:1,2011-12-06T00:30:00Z,30.2791,-87.5561,1.457,7.75,1111122 
DISL,ioos:station:DISL:PPTA:1,2011-12-06T01:00:00Z,30.2791,-87.5561,1.455,7.72,1111122 
DISL,ioos:station:DISL:PPTA:1,2011-12-06T01:30:00Z,30.2791,-87.5561,1.46,7.66,1111122 
DISL,ioos:station:DISL:PPTA:1,2011-12-06T02:00:00Z,30.2791,-87.5561,1.46,7.73,1111122 
DISL,ioos:station:DISL:PPTA:1,2011-12-06T02:30:00Z,30.2791,-87.5561,1.448,7.64,1111122 
DISL,ioos:station:DISL:PPTA:1,2011-12-06T03:00:00Z,30.2791,-87.5561,1.458,8.01,1111122 
DISL,ioos:station:DISL:PPTA:1,2011-12-06T03:30:00Z,30.2791,-87.5561,1.419,7.77,1111122 
DISL,ioos:station:DISL:PPTA:1,2011-12-06T04:00:00Z,30.2791,-87.5561,1.419,7.86,1111122 
DISL,ioos:station:DISL:PPTA:1,2011-12-06T04:30:00Z,30.2791,-87.5561,1.367,7.88,1111122 
DISL,ioos:station:DISL:PPTA:1,2011-12-06T05:00:00Z,30.2791,-87.5561,1.356,7.72,1111122 
DISL,ioos:station:DISL:PPTA:1,2011-12-06T05:30:00Z,30.2791,-87.5561,1.325,7.83,1111122 
DISL,ioos:station:DISL:PPTA:1,2011-12-06T06:00:00Z,30.2791,-87.5561,1.325,7.92,1111122 
DISL,ioos:station:DISL:PPTA:1,2011-12-06T06:30:00Z,30.2791,-87.5561,1.311,7.96,1111122 
DISL,ioos:station:DISL:PPTA:1,2011-12-06T07:00:00Z,30.2791,-87.5561,1.311,8.06,1111122 
DISL,ioos:station:DISL:PPTA:1,2011-12-06T07:30:00Z,30.2791,-87.5561,1.29,8.13,1111122 
DISL,ioos:station:DISL:PPTA:1,2011-12-06T08:00:00Z,30.2791,-87.5561,1.274,8.12,1111122 
DISL,ioos:station:DISL:PPTA:1,2011-12-06T08:30:00Z,30.2791,-87.5561,1.268,8.17,1111122 
DISL,ioos:station:DISL:PPTA:1,2011-12-06T09:00:00Z,30.2791,-87.5561,1.243,8.17,1111122 
DISL,ioos:station:DISL:PPTA:1,2011-12-06T09:30:00Z,30.2791,-87.5561,1.239,8.06,1111122 
DISL,ioos:station:DISL:PPTA:1,2011-12-06T10:00:00Z,30.2791,-87.5561,1.234,8.03,1111122 
DISL,ioos:station:DISL:PPTA:1,2011-12-06T10:30:00Z,30.2791,-87.5561,1.219,8.07,1111122 
DISL,ioos:station:DISL:PPTA:1,2011-12-06T11:00:00Z,30.2791,-87.5561,1.201,8.11,1111122 
DISL,ioos:station:DISL:PPTA:1,2011-12-06T11:30:00Z,30.2791,-87.5561,1.205,8.03,1111122 
DISL,ioos:station:DISL:PPTA:1,2011-12-06T12:00:00Z,30.2791,-87.5561,1.211,8.05,1111122 
DISL,ioos:station:DISL:PPTA:1,2011-12-06T12:30:00Z,30.2791,-87.5561,1.207,8.06,1111122 
DISL,ioos:station:DISL:PPTA:1,2011-12-06T13:00:00Z,30.2791,-87.5561,1.215,8.03,1111122 
DISL,ioos:station:DISL:PPTA:1,2011-12-06T13:30:00Z,30.2791,-87.5561,1.225,7.96,1111122 
DISL,ioos:station:DISL:PPTA:1,2011-12-06T14:00:00Z,30.2791,-87.5561,1.247,7.97,1111122 
DISL,ioos:station:DISL:PPTA:1,2011-12-06T14:30:00Z,30.2791,-87.5561,1.236,7.6,1111122 
DISL,ioos:station:DISL:PPTA:1,2011-12-06T15:00:00Z,30.2791,-87.5561,1.242,7.46,1111122 
DISL,ioos:station:DISL:PPTA:1,2011-12-06T15:30:00Z,30.2791,-87.5561,1.234,7.71,1111122 
DISL,ioos:station:DISL:PPTA:1,2011-12-06T16:00:00Z,30.2791,-87.5561,1.24,7.56,1111122 
DISL,ioos:station:DISL:PPTA:1,2011-12-06T16:30:00Z,30.2791,-87.5561,1.256,7.28,1111122 
DISL,ioos:station:DISL:PPTA:1,2011-12-06T17:00:00Z,30.2791,-87.5561,1.253,7.55,1111122 
DISL,ioos:station:DISL:PPTA:1,2011-12-06T17:30:00Z,30.2791,-87.5561,1.247,7.77,1111122 
DISL,ioos:station:DISL:PPTA:1,2011-12-06T18:00:00Z,30.2791,-87.5561,1.253,7.58,1111122 
DISL,ioos:station:DISL:PPTA:1,2011-12-06T18:30:00Z,30.2791,-87.5561,1.29,7.66,1111122 